Starlink 32440

operational
NORAD ID: 61714 Int'l Des: 2024-196 Owner: SPXS Country: US Constellation: starlink
LEOCIRCULAR

Über Starlink 32440

Beschreibung wird geladen...

Live-Position

3D-Globus wird geladen...

Nächste Überflüge

Höhenverlauf

Altitude vs Time

uPlot chart will show altitude changes over time

Zweizeiliger Elementsatz

1 61714U 24196H 25352.61724373 -.00001433 00000-0 -36251-4 0 9995
2 61714 53.1606 117.9429 0001286 104.2976 255.8168 15.30202200 64742
Epoch: 18. Dez. 2025 • Age: 31 hours

Aktueller Status

Höhe 475.4 km
Geschwindigkeit 7.63 km/s
Subsatellitenpunkt 10.60°N, 57.79°E
Startdatum 30. Okt. 2024
Alter 1.1 years
Typ internet

Technische Details

Klassifizierung Payload
Masse 730.00 kg
Trockenmasse 700.00 kg
Gesamtmasse 730.00 kg
Länge 0.30 m
Durchmesser 4.10 m
Spannweite 29.00 m
Form Box + pan
Hersteller SPXS
Bus-Typ Starlink V2M
Phasenstatus In Orbit
Besitzer/Staat SPXS/US

Große Konstellationen

Loading constellations...